Old Crow AWS Syst, Yukon Territory

10:23 AM PST on February 26, 2017 (GMT -0800)
Old Crow

Weather History for CZOC - August, 2013

Change the Weather History Date:

Saturday, August 3, 2013

  Actual Average Record
Temperature  
Mean Temperature 72 °F -  
Max Temperature 89 °F - - ()
Min Temperature 54 °F - - ()
Cooling Degree Days 6    
Growing Degree Days 22 (Base 50)    
Moisture  
Dew Point 48 °F    
Average Humidity 45    
Maximum Humidity 81    
Minimum Humidity 14    
Precipitation  
Precipitation 0.00 in - - ()
Sea Level Pressure  
Sea Level Pressure 29.71 in    
Wind  
Wind Speed 3 mph ()    
Max Wind Speed 16 mph    
Max Gust Speed 17 mph    
T = Trace of Precipitation, MM = Missing Value Source: Averaged Metar Reports

Daily Weather History Graph

Daily Weather History Graph

Search for Another Location

Airport or City:

Trip Planner

Search our weather history database for the weather conditions in past years. The results will help you decide how hot, cold, wet, or windy it might be!

Date:

Astronomy

Aug. 03, 2013 Rise Set
Actual Time 4:53 AM PDT 11:53 PM PDT
Civil Twilight 2:57 AM PDT 1:52 AM PDT
Nautical Twilight Sun does not rise Sun does not rise
Astronomical Twilight Sun does not rise Sun does not rise
Moon 1:42 AM PDT (8/3) 9:54 PM PDT (8/3)
Length of Visible Light 22h 55m
Length of Day
18h 59m
Waning Crescent, 9% of the Moon is Illuminated
Aug 3
Waning Crescent
Aug 6
New
Aug 14
First Quarter
Aug 20
Full
Aug 28
Last Quarter

Hourly Weather History & Observations

Time (PDT) Temp. Dew Point Humidity Pressure Visibility Wind Dir Wind Speed Gust Speed Precip Events Conditions
12:00 AM 67.8 °F 48.7 °F 50% 29.82 in - NE 2.3 mph - N/A   Unknown
1:00 AM 64.6 °F 49.3 °F 58% 29.81 in - NNE 5.8 mph - N/A   Unknown
2:00 AM 66.0 °F 49.6 °F 55% 29.80 in - NNE 4.6 mph - N/A   Unknown
3:00 AM 64.2 °F 51.3 °F 63% 29.79 in - ENE 3.5 mph - N/A   Unknown
4:00 AM 59.9 °F 50.7 °F 72% 29.78 in - NE 2.3 mph - N/A   Unknown
5:00 AM 59 °F 49 °F 60% 29.78 in - NE 1.2 mph - -  
5:00 AM 59.2 °F 48.7 °F 68% 29.78 in - Calm Calm - N/A   Unknown
6:00 AM 55.2 °F 49.6 °F 81% 29.78 in - ENE 2.3 mph - N/A   Unknown
7:00 AM 58.3 °F 49.8 °F 73% 29.76 in - Calm Calm - N/A   Unknown
8:00 AM 62.6 °F 53.2 °F 71% 29.75 in - ENE 1.2 mph - N/A   Unknown
9:00 AM 65.7 °F 53.2 °F 64% 29.74 in - Calm Calm - N/A   Unknown
10:00 AM 69.6 °F 51.3 °F 52% 29.73 in - Calm Calm - N/A   Unknown
11:00 AM 72 °F 53 °F 41% 29.72 in - Calm Calm - -  
11:00 AM 72.5 °F 53.1 °F 50% 29.72 in - Calm Calm - N/A   Unknown
12:00 PM 77.7 °F 48.4 °F 36% 29.70 in - Calm Calm - N/A   Unknown
1:00 PM 81.0 °F 46.8 °F 30% 29.69 in - Calm Calm - N/A   Unknown
2:00 PM 84.4 °F 47.3 °F 27% 29.67 in - Calm Calm - N/A   Unknown
3:00 PM 87.3 °F 43.2 °F 21% 29.66 in - SSE 5.8 mph - N/A   Unknown
4:00 PM 88.0 °F 43.9 °F 21% 29.65 in - South 5.8 mph - N/A   Unknown
5:00 PM 86 °F 44 °F 14% 29.64 in - SW 4.6 mph - -  
5:00 PM 86.4 °F 43.7 °F 22% 29.63 in - SW 2.3 mph - N/A   Unknown
6:00 PM 83.1 °F 46.6 °F 28% 29.64 in - West 16.1 mph - N/A   Unknown
7:00 PM 81.9 °F 46.0 °F 28% 29.65 in - West 11.5 mph 17.3 mph N/A   Unknown
8:00 PM 79.5 °F 44.2 °F 29% 29.66 in - West 11.5 mph - N/A   Unknown
9:00 PM 79.7 °F 45.7 °F 30% 29.66 in - WSW 8.1 mph - N/A   Unknown
10:00 PM 75.6 °F 46.9 °F 36% 29.66 in - SW 2.3 mph - N/A   Unknown
11:00 PM 72 °F 47 °F 30% 29.67 in - West 2.3 mph - -  
11:00 PM 72.3 °F 46.9 °F 40% 29.68 in - West 1.2 mph - N/A   Unknown